Wind_Speed
19 20 21 21 21 21 21 21 20 19 18 18 18 18 20 21 24 26 29 32 36 38 41 43 45 46 45 45 43 41 38 37 35 33 31 31 31 30 30 29 27 26 25
19 20 21 21 22 21 21 21 20 19 18 17 17 17 17 18 20 22 24 28 31 34 37 40 42 44 45 45 45 44 41 40 38 36 34 33 32 32 32 32 30 30 28
19 20 21 21 21 21 21 21 20 19 18 17 16 16 16 16 17 18 20 23 26 29 33 36 39 41 43 44 44 44 44 42 40 38 36 35 33 33 34 34 33 32 31
19 20 20 21 21 22 22 21 21 20 19 18 16 16 15 15 15 15 16 19 22 25 28 31 34 37 40 42 44 44 44 44 42 40 37 36 36 34 34 35 36 36 33
19 20 20 21 21 21 22 22 22 21 19 18 17 17 16 15 14 14 14 16 18 21 24 28 31 34 37 39 41 43 44 44 43 42 40 39 38 37 36 35 36 38 37
19 19 20 21 22 22 22 23 22 21 20 19 18 17 17 16 15 14 14 14 15 18 21 24 27 31 34 37 39 41 43 43 44 43 42 40 39 38 38 37 36 38 39
18 19 20 21 22 23 23 23 23 22 22 21 20 19 18 17 16 15 14 14 14 16 19 21 24 27 30 34 36 38 40 43 44 44 44 42 40 39 39 39 37 37 39
18 19 21 22 22 23 23 23 23 23 23 22 21 20 19 18 17 16 15 14 14 15 17 20 22 25 28 31 34 36 38 41 43 44 45 44 42 43 41 40 40 40 38
18 19 20 21 23 23 24 24 24 24 23 23 23 22 21 21 19 17 16 15 15 15 16 18 20 23 26 29 32 35 37 39 42 44 45 46 44 44 42 41 41 42 41
18 19 20 22 23 24 24 24 24 24 24 24 24 23 22 22 21 19 18 17 16 15 15 16 17 19 22 26 28 32 35 37 40 42 43 46 46 45 44 44 42 43 42
18 19 20 22 23 23 24 25 25 25 25 25 25 24 23 23 22 21 20 18 17 16 15 15 15 16 19 21 25 29 31 34 37 40 41 43 45 46 45 45 43 42 42
18 19 20 21 22 23 24 25 25 25 26 26 26 25 24 23 23 22 22 20 19 18 17 16 15 14 15 18 20 24 28 32 35 37 40 42 43 44 45 45 45 44 43
17 18 20 21 22 23 24 25 25 26 26 27 27 26 26 25 24 23 23 22 21 20 19 17 15 14 14 15 17 20 23 27 31 34 37 39 42 42 43 44 45 45 43
17 18 19 20 21 22 23 24 25 25 26 27 27 27 27 26 25 25 24 24 23 21 20 18 15 14 13 13 15 17 20 23 26 30 33 36 39 40 42 44 45 46 45
18 18 19 20 21 22 22 23 24 25 25 26 27 27 27 27 27 26 25 25 24 23 21 18 16 14 12 12 13 16 19 21 24 27 30 33 36 38 41 42 44 45 46
17 18 19 19 20 21 22 23 23 24 25 26 26 27 27 28 28 27 26 26 25 24 23 20 17 15 12 11 11 13 16 19 21 24 27 30 32 35 37 40 42 43 44
17 18 19 19 20 20 21 22 23 24 25 25 26 27 27 28 28 28 28 27 26 25 24 22 19 16 13 11 10 11 12 15 17 20 24 27 29 32 34 36 39 41 42
18 18 19 20 20 21 21 22 23 23 24 25 26 27 27 28 28 28 28 28 27 26 25 23 21 18 15 13 10 8 9 10 13 16 20 23 26 28 31 34 35 37 39
18 19 19 20 21 21 22 22 23 24 24 25 26 27 27 28 28 28 28 29 28 27 25 24 22 19 16 14 12 10 8 9 10 13 16 19 22 25 28 31 34 35 36
18 19 20 20 21 21 22 22 23 23 24 25 26 26 27 27 28 28 28 28 28 28 26 25 23 21 18 15 13 11 9 8 9 10 13 15 19 22 24 28 31 32 33
19 20 20 21 21 22 22 23 23 24 24 25 25 26 26 26 27 27 27 28 28 27 26 25 24 22 19 17 14 12 10 8 7 8 10 12 15 18 19 23 26 29 30
20 21 21 22 22 23 23 24 24 24 24 24 25 25 25 26 26 26 26 27 27 27 26 25 24 23 20 18 15 14 11 8 6 6 7 9 11 14 16 18 22 25 26
21 22 23 24 24 24 24 24 24 24 24 25 25 25 25 25 25 25 25 25 25 25 25 25 24 22 21 19 17 15 12 9 6 5 4 6 8 10 12 14 17 21 23
24 25 25 26 26 26 26 26 25 25 25 25 25 25 25 25 25 24 25 25 24 24 24 24 23 22 21 19 17 15 13 10 8 6 4 4 6 8 10 12 15 17 20
27 27 28 28 28 28 28 27 27 26 26 26 25 25 25 25 24 24 24 24 24 23 23 22 22 21 20 19 17 15 13 10 9 7 5 3 3 6 9 11 12 14 16
29 30 30 30 30 30 30 29 28 27 27 27 27 26 26 25 25 24 24 23 23 23 22 22 21 20 19 17 16 15 13 11 9 7 5 3 3 3 6 9 11 12 14
Wind_Direction
344 343 342 341 339 338 337 335 331 325 319 312 304 295 286 278 272 266 259 255 252 250 249 248 246 245 245 246 246 245 244 241 239 237 236 232 229 228 228 228 228 225 224
349 349 349 348 347 345 343 342 338 334 330 324 316 308 299 289 279 270 263 256 253 251 249 247 247 245 245 245 244 243 242 241 239 238 237 236 232 231 230 229 227 226 226
354 354 353 353 353 352 350 349 346 342 338 332 325 318 311 301 290 279 269 262 256 252 250 247 246 245 245 244 243 243 242 242 240 238 237 236 234 232 230 228 227 226 226
357 357 357 357 356 356 356 354 351 348 344 341 336 328 322 316 305 292 280 270 262 256 251 248 247 246 245 244 244 244 243 242 239 238 236 234 233 233 232 230 228 226 226
0 360 360 360 359 359 359 358 356 354 351 349 346 341 335 327 319 308 294 282 270 262 256 251 248 247 246 245 244 243 242 240 239 238 237 236 234 234 235 232 229 228 227
4 5 5 5 5 3 2 2 2 1 359 356 353 349 344 338 329 319 307 293 281 271 262 256 251 248 247 245 244 243 241 239 238 237 238 237 235 234 234 233 231 229 228
9 10 9 8 8 8 7 6 6 6 5 2 358 354 350 344 337 328 318 306 293 280 270 262 256 252 248 245 243 242 240 239 238 237 236 236 235 234 233 232 230 230 229
12 12 11 10 10 9 9 8 8 8 7 6 4 1 357 351 345 338 329 318 305 291 279 270 262 255 250 247 244 242 240 238 237 236 236 235 235 233 233 232 231 230 230
15 14 13 12 11 10 10 9 9 9 8 7 6 5 3 359 353 347 340 330 318 304 290 279 269 260 254 250 246 242 240 238 237 236 236 234 234 233 234 232 231 231 231
17 15 13 12 12 12 12 12 11 10 9 8 6 4 2 1 359 355 349 341 331 320 308 293 278 267 259 252 247 242 240 238 236 236 235 235 234 234 234 233 232 232 232
14 13 12 12 12 12 12 13 12 12 11 10 8 6 3 1 0 357 353 348 342 333 321 307 291 278 265 256 249 243 240 238 236 236 235 234 234 235 235 234 233 231 232
13 12 12 12 12 12 12 12 12 12 11 11 10 9 7 4 2 359 356 351 346 340 333 320 305 289 272 262 254 246 241 239 237 235 234 234 234 234 234 234 234 232 232
12 11 11 11 11 11 11 12 12 12 12 11 10 10 9 7 5 2 359 357 352 347 341 333 318 303 285 269 258 249 244 240 238 236 235 234 234 234 234 234 234 234 233
8 9 9 9 9 9 9 10 11 12 11 11 11 11 10 8 6 3 2 0 357 353 348 342 331 316 298 281 266 254 247 243 241 238 236 234 234 234 234 234 234 234 234
4 4 4 4 5 6 6 7 8 9 9 9 10 10 10 9 7 5 3 2 359 357 354 351 344 332 314 294 277 262 251 246 242 239 237 235 234 233 233 234 234 234 235
359 359 359 359 359 0 2 3 4 5 5 6 6 7 8 8 7 6 5 3 2 1 358 356 350 343 330 311 290 273 257 248 244 241 239 237 236 234 233 233 232 233 235
354 355 355 355 355 355 356 357 358 360 1 2 3 3 4 5 5 5 5 5 4 3 1 0 357 352 345 330 309 286 267 256 249 243 239 237 236 235 234 233 232 233 234
346 347 348 350 351 351 352 353 354 354 356 357 359 0 1 2 3 3 4 4 4 3 2 2 360 356 351 345 334 311 285 265 253 246 242 239 235 233 233 232 232 232 233
338 340 342 343 345 346 347 348 350 351 352 353 355 356 358 359 0 1 2 3 3 3 3 3 2 0 356 349 340 328 304 279 262 253 247 241 235 233 233 232 232 231 231
333 335 336 338 339 340 342 344 345 346 348 349 350 352 354 356 358 359 0 2 3 4 4 3 2 2 360 354 348 338 321 295 273 261 251 244 237 233 234 231 229 230 230
329 330 331 332 333 335 336 338 340 341 343 344 346 348 349 352 354 356 358 360 2 3 4 4 4 3 1 358 353 347 335 314 290 269 254 245 238 235 234 229 226 226 227
324 325 326 327 328 330 331 332 334 336 337 338 340 342 344 346 349 352 354 356 358 1 3 4 4 4 4 3 1 357 352 339 317 282 258 248 240 235 233 227 224 223 224
319 321 321 322 323 324 325 327 328 330 331 332 333 335 338 340 343 346 349 351 353 356 359 1 2 3 3 3 4 4 3 359 344 318 277 252 241 236 229 224 221 220 221
314 315 316 316 317 318 320 321 322 323 324 325 326 328 330 332 335 339 342 345 347 350 353 356 359 1 2 3 4 6 6 7 1 341 312 273 252 234 226 222 221 219 218
311 311 311 311 312 313 314 316 317 317 318 318 319 320 322 324 326 329 333 337 340 342 346 349 352 355 358 360 1 2 3 3 3 357 340 299 251 229 221 215 214 215 214
307 306 306 307 307 309 310 311 312 313 314 314 314 315 316 317 318 320 323 326 330 333 336 340 343 347 349 352 354 355 357 356 356 356 350 325 274 238 215 212 211 210 210
Height
5855 5850 5846 5842 5837 5833 5828 5824 5819 5816 5812 5809 5806 5804 5802 5801 5801 5800 5801 5802 5803 5806 5808 5811 5815 5819 5823 5827 5831 5834 5838 5842 5845 5848 5852 5855 5858 5862 5865 5868 5871 5874 5876
5853 5849 5845 5840 5835 5830 5826 5821 5817 5813 5809 5805 5802 5800 5797 5796 5795 5794 5794 5795 5796 5797 5800 5802 5806 5809 5813 5817 5821 5825 5829 5834 5837 5841 5844 5848 5852 5855 5859 5862 5865 5868 5871
5852 5848 5843 5839 5834 5829 5824 5819 5815 5810 5806 5803 5799 5796 5794 5792 5790 5789 5788 5788 5789 5790 5792 5794 5797 5800 5804 5808 5812 5816 5820 5824 5829 5833 5837 5841 5845 5848 5851 5855 5859 5862 5866
5852 5847 5843 5838 5833 5828 5823 5818 5814 5809 5805 5801 5797 5794 5791 5788 5786 5784 5783 5783 5783 5784 5785 5787 5789 5792 5795 5798 5802 5806 5811 5815 5820 5824 5828 5833 5837 5840 5845 5848 5852 5856 5859
5851 5847 5843 5838 5833 5828 5823 5818 5813 5808 5803 5799 5795 5792 5788 5785 5783 5781 5779 5778 5778 5778 5779 5780 5782 5784 5786 5789 5793 5797 5801 5806 5811 5815 5819 5824 5828 5833 5837 5840 5844 5848 5852
5851 5847 5842 5838 5833 5828 5823 5817 5812 5807 5803 5798 5794 5790 5787 5783 5780 5778 5776 5774 5773 5772 5772 5773 5774 5776 5778 5780 5784 5787 5792 5796 5801 5806 5810 5815 5819 5824 5829 5833 5836 5840 5844
5851 5847 5842 5838 5833 5828 5823 5817 5812 5807 5802 5798 5793 5789 5785 5782 5778 5775 5772 5770 5769 5768 5767 5767 5767 5768 5770 5772 5775 5778 5782 5787 5792 5796 5801 5806 5811 5815 5820 5824 5828 5832 5836
5851 5847 5842 5838 5833 5828 5823 5818 5813 5807 5803 5798 5793 5789 5784 5780 5776 5773 5769 5767 5765 5763 5761 5761 5760 5761 5762 5764 5766 5769 5773 5777 5782 5787 5792 5796 5801 5806 5810 5815 5820 5824 5828
5851 5847 5843 5838 5834 5829 5824 5818 5813 5808 5803 5798 5793 5788 5783 5779 5775 5771 5767 5764 5761 5758 5756 5755 5754 5754 5755 5756 5757 5760 5764 5767 5772 5777 5782 5787 5792 5797 5801 5806 5811 5816 5820
5852 5848 5844 5839 5835 5830 5824 5819 5814 5809 5803 5798 5793 5788 5783 5778 5774 5769 5765 5761 5758 5755 5752 5749 5748 5747 5747 5748 5749 5752 5755 5758 5763 5767 5772 5777 5782 5787 5792 5797 5802 5807 5812
5852 5848 5844 5840 5835 5830 5825 5820 5815 5809 5804 5799 5793 5788 5783 5778 5773 5768 5764 5760 5755 5751 5748 5745 5743 5741 5740 5741 5742 5744 5746 5750 5754 5758 5763 5767 5772 5777 5782 5787 5792 5797 5802
5852 5848 5844 5840 5836 5831 5826 5821 5816 5810 5805 5799 5794 5788 5783 5778 5772 5768 5763 5758 5753 5749 5744 5741 5738 5736 5735 5735 5735 5736 5739 5742 5745 5749 5754 5758 5763 5768 5773 5778 5783 5788 5793
5853 5849 5845 5840 5836 5832 5827 5822 5817 5811 5806 5800 5795 5789 5783 5778 5772 5767 5762 5757 5752 5746 5741 5737 5734 5732 5730 5730 5730 5730 5732 5735 5738 5741 5745 5749 5754 5759 5764 5769 5774 5779 5783
5852 5849 5845 5841 5836 5832 5827 5823 5817 5812 5807 5801 5796 5790 5784 5778 5773 5767 5761 5756 5750 5745 5739 5735 5731 5728 5726 5725 5725 5726 5727 5729 5731 5734 5737 5741 5745 5750 5754 5759 5764 5769 5774
5852 5849 5845 5841 5836 5832 5828 5823 5818 5813 5808 5802 5797 5791 5785 5779 5773 5767 5761 5755 5750 5744 5738 5733 5729 5726 5723 5722 5721 5721 5722 5723 5725 5727 5730 5733 5737 5741 5745 5750 5755 5760 5765
5852 5848 5844 5840 5836 5832 5828 5823 5818 5813 5808 5803 5797 5792 5786 5780 5774 5767 5761 5755 5749 5743 5738 5732 5728 5724 5721 5719 5717 5716 5716 5717 5719 5720 5723 5725 5729 5733 5737 5741 5746 5751 5756
5851 5847 5843 5839 5835 5831 5827 5823 5818 5813 5808 5803 5798 5792 5786 5780 5774 5768 5761 5755 5749 5743 5737 5731 5727 5722 5719 5716 5714 5712 5712 5712 5713 5714 5716 5719 5722 5725 5729 5733 5737 5742 5747
5849 5846 5842 5838 5834 5830 5826 5822 5817 5813 5808 5803 5798 5792 5786 5780 5774 5768 5762 5755 5749 5743 5737 5731 5726 5721 5718 5715 5712 5710 5709 5708 5709 5709 5711 5712 5715 5718 5722 5725 5730 5734 5738
5847 5844 5840 5837 5833 5829 5825 5821 5816 5812 5807 5802 5797 5792 5786 5780 5775 5769 5762 5756 5749 5743 5737 5731 5726 5721 5717 5714 5711 5708 5706 5705 5705 5705 5706 5707 5709 5712 5715 5718 5722 5726 5730
5845 5841 5838 5834 5831 5827 5823 5819 5815 5810 5806 5801 5796 5791 5785 5780 5774 5769 5763 5756 5750 5744 5738 5732 5726 5721 5717 5713 5710 5707 5704 5703 5702 5701 5702 5702 5704 5706 5709 5711 5715 5719 5723
5842 5838 5835 5831 5828 5824 5820 5816 5812 5808 5804 5799 5794 5790 5784 5779 5774 5768 5763 5757 5751 5745 5739 5733 5727 5722 5717 5713 5709 5706 5703 5701 5700 5699 5699 5699 5700 5702 5704 5706 5709 5713 5717
5838 5834 5831 5828 5824 5821 5817 5813 5810 5806 5801 5797 5792 5788 5783 5778 5773 5768 5762 5757 5751 5745 5740 5734 5728 5723 5718 5713 5709 5705 5703 5700 5699 5698 5697 5697 5697 5698 5699 5701 5704 5707 5711
5833 5830 5827 5824 5820 5817 5813 5810 5806 5802 5798 5794 5789 5785 5781 5776 5771 5767 5762 5756 5751 5746 5740 5735 5730 5724 5719 5714 5710 5706 5703 5701 5699 5697 5696 5696 5696 5696 5697 5698 5700 5703 5706
5828 5825 5822 5818 5815 5812 5808 5805 5801 5798 5794 5790 5786 5782 5777 5773 5769 5765 5760 5755 5750 5746 5741 5736 5731 5726 5721 5716 5712 5708 5705 5702 5700 5698 5697 5696 5695 5695 5696 5697 5698 5700 5702
5822 5819 5816 5812 5809 5806 5802 5799 5796 5792 5789 5785 5781 5777 5773 5770 5766 5762 5758 5754 5749 5745 5740 5736 5731 5726 5722 5718 5714 5710 5707 5704 5702 5700 5698 5696 5695 5695 5695 5695 5696 5698 5699
5815 5812 5809 5805 5802 5799 5796 5793 5790 5786 5783 5779 5775 5772 5768 5765 5761 5758 5754 5751 5747 5743 5739 5735 5731 5727 5723 5719 5715 5712 5709 5706 5703 5701 5699 5697 5696 5695 5695 5695 5696 5697 5698